Location: Columbia
(38.9520°N, 92.3340°W)
Time: 13:32:49
(UTC-05:00)

CZ-2C R/B - Visible Passes

Search period start: 01 September 2014 00:00
Search period end: 11 September 2014 00:00
Orbit: 705 x 909 km, 98.1° (Epoch: 31 August)

Date Brightness Start Highest point End Pass type
(mag) Time Alt. Az. Time Alt. Az. Time Alt. Az.
01 Sep 2.8 04:19:17 77° S 04:19:39 89° WSW 04:24:40 10° NNW visible
02 Sep 3.6 03:54:37 49° E 03:55:13 52° ENE 04:00:05 10° N visible
02 Sep 4.5 05:35:43 15° W 05:35:43 15° W 05:38:23 10° NW visible
03 Sep 4.6 03:29:57 28° E 03:30:52 30° ENE 03:35:15 10° N visible
03 Sep 3.9 05:11:03 27° W 05:11:03 27° W 05:14:59 10° NW visible
04 Sep 5.3 03:05:18 17° E 03:06:38 19° ENE 03:10:04 10° NNE visible
04 Sep 3.2 04:46:23 47° W 04:46:23 47° W 04:50:59 10° NNW visible
05 Sep 5.8 02:41:09 10° ENE 02:42:30 11° ENE 02:43:53 10° NE visible
05 Sep 2.8 04:21:44 81° NW 04:21:44 81° NW 04:26:41 10° NNW visible
06 Sep 3.5 03:57:05 56° ENE 03:57:06 56° ENE 04:02:08 10° N visible
06 Sep 4.6 05:38:10 14° W 05:38:10 14° W 05:40:14 10° NW visible
07 Sep 4.4 03:32:25 33° ENE 03:32:46 33° ENE 03:37:21 10° N visible
07 Sep 4.1 05:13:31 25° WNW 05:13:31 25° WNW 05:16:56 10° NW visible
08 Sep 5.2 03:07:46 20° ENE 03:08:32 20° ENE 03:12:14 10° NNE visible
08 Sep 3.4 04:48:51 41° WNW 04:48:51 41° WNW 04:52:58 10° NNW visible
09 Sep 5.8 02:43:06 11° ENE 02:44:24 12° ENE 02:46:24 10° NE visible
09 Sep 3.1 04:24:12 65° NW 04:24:12 65° NW 04:28:42 10° NNW visible
10 Sep 3.5 03:59:33 57° NE 03:59:33 57° NE 04:04:11 10° N visible
10 Sep 4.8 05:40:39 13° WNW 05:40:39 13° WNW 05:42:05 10° WNW visible
